Flagstaff, AZ

4:47 PM MST on November 20, 2017 (GMT -0700)
Flagstaff Pulliam

Weather History for KFLG - March, 2013

Change the Weather History Date:

Saturday, March 23, 2013

  Actual Average Record
Temperature  
Mean Temperature 34 °F 38 °F  
Max Temperature 47 °F 52 °F 67 °F (1990)
Min Temperature 21 °F 25 °F -1 °F (1973)
Degree Days  
Heating Degree Days 31 27  
Month to date heating degree days 589 659  
Since 1 July heating degree days 5457 5498  
Cooling Degree Days 0 0  
Month to date cooling degree days 0 0  
Year to date cooling degree days 0 0  
Moisture  
Dew Point -6 °F    
Average Humidity 27    
Maximum Humidity 45    
Minimum Humidity 8    
Precipitation  
Precipitation 0.00 in 0.06 in 1.09 in (1954)
Month to date precipitation 1.38 1.66  
Year to date precipitation 4.88 5.87  
Snow  
Snow 0.00 in 0.60 in 11.40 in (1964)
Month to date snowfall 15.2 16.7  
Since 1 July snowfall 68.3 89.9  
Snow Depth 0.00 in    
Sea Level Pressure  
Sea Level Pressure 29.91 in    
Wind  
Wind Speed 7 mph (NW)    
Max Wind Speed 20 mph    
Max Gust Speed 32 mph    
Visibility 10 miles    
Events      
T = Trace of Precipitation, MM = Missing Value Source: NWS Daily Summary

Daily Weather History Graph

Daily Weather History Graph

Search for Another Location

Airport or City:

Trip Planner

Search our weather history database for the weather conditions in past years. The results will help you decide how hot, cold, wet, or windy it might be!

Date:

Astronomy

Mar. 23, 2013 Rise Set
Actual Time 6:25 AM MST 6:41 PM MST
Civil Twilight 6:00 AM MST 7:06 PM MST
Nautical Twilight 5:30 AM MST 7:36 PM MST
Astronomical Twilight 5:00 AM MST 8:06 PM MST
Moon 3:18 PM MST (3/23) 3:56 AM MST (3/23)
Length of Visible Light 13h 06m
Length of Day
12h 15m
Waxing Gibbous, 86% of the Moon is Illuminated
Mar 23
Waxing Gibbous
Mar 27
Full
Apr 2
Last Quarter
Apr 10
New
Apr 18
First Quarter

Hourly Weather History & Observations

Time (MST) Temp. Windchill Dew Point Humidity Pressure Visibility Wind Dir Wind Speed Gust Speed Precip Events Conditions
12:57 AM 39.0 °F 32.3 °F -11.0 °F 12% 29.73 in 10.0 mi West 10.4 mph 18.4 mph N/A   Clear
1:57 AM 37.9 °F 31.5 °F -11.0 °F 12% 29.73 in 10.0 mi WSW 9.2 mph 18.4 mph N/A   Clear
2:57 AM 35.1 °F 30.1 °F -9.0 °F 15% 29.73 in 10.0 mi West 5.8 mph - N/A   Clear
3:57 AM 33.1 °F 25.5 °F -9.0 °F 16% 29.77 in 10.0 mi WNW 9.2 mph - N/A   Clear
4:57 AM 30.0 °F 25.2 °F -0.9 °F 27% 29.80 in 10.0 mi WNW 4.6 mph - N/A   Clear
5:57 AM 28.0 °F 21.7 °F -2.0 °F 27% 29.84 in 10.0 mi WNW 5.8 mph - N/A   Clear
6:57 AM 27.0 °F 20.5 °F -0.9 °F 30% 29.88 in 10.0 mi WNW 5.8 mph - N/A   Clear
7:57 AM 30.9 °F 22.8 °F -5.1 °F 21% 29.90 in 10.0 mi NNW 9.2 mph 21.9 mph N/A   Clear
8:57 AM 34.0 °F 25.0 °F -8.0 °F 16% 29.91 in 10.0 mi NNW 12.7 mph 27.6 mph N/A   Clear
9:57 AM 37.0 °F 30.4 °F -7.1 °F 15% 29.92 in 10.0 mi NW 9.2 mph 23.0 mph N/A   Clear
10:57 AM 39.9 °F 33.4 °F -7.1 °F 14% 29.91 in 10.0 mi WNW 10.4 mph 18.4 mph N/A   Clear
11:57 AM 44.1 °F 39.0 °F -7.1 °F 12% 29.89 in 10.0 mi NW 9.2 mph 19.6 mph N/A   Clear
12:57 PM 46.0 °F 41.0 °F -11.0 °F 9% 29.88 in 10.0 mi WNW 10.4 mph 19.6 mph N/A   Clear
1:57 PM 45.0 °F 40.1 °F -9.9 °F 10% 29.88 in 10.0 mi NNW 9.2 mph 20.7 mph N/A   Clear
2:57 PM 46.0 °F 41.0 °F -9.0 °F 10% 29.88 in 10.0 mi NW 10.4 mph 17.3 mph N/A   Clear
3:57 PM 45.0 °F 41.8 °F -11.9 °F 9% 29.91 in 10.0 mi Variable 5.8 mph 21.9 mph N/A   Clear
4:57 PM 44.1 °F 38.1 °F -15.0 °F 8% 29.95 in 10.0 mi NNW 11.5 mph 19.6 mph N/A   Clear
5:57 PM 42.1 °F 36.6 °F -11.0 °F 10% 29.98 in 10.0 mi West 9.2 mph 16.1 mph N/A   Clear
6:57 PM 36.0 °F 33.3 °F -7.1 °F 16% 30.01 in 10.0 mi NW 3.5 mph - N/A   Clear
7:57 PM 33.1 °F 30.0 °F -7.1 °F 18% 30.03 in 10.0 mi NNW 3.5 mph - N/A   Clear
8:57 PM 27.0 °F - -2.0 °F 29% 30.06 in 10.0 mi Calm Calm - N/A   Clear
9:57 PM 25.0 °F - 3.0 °F 39% 30.06 in 10.0 mi Calm Calm - N/A   Clear
10:57 PM 23.0 °F - 5.0 °F 46% 30.05 in 10.0 mi Calm Calm - N/A   Clear
11:57 PM 21.9 °F 17.2 °F 3.9 °F 46% 30.04 in 10.0 mi NNE 3.5 mph - N/A   Clear